Home > Weather > Greater Sudbury > Past weeks

Flag for Canada Weather for the Past 2 Weeks in Greater Sudbury, Ontario, Canada

Now
45 °F

Overcast.


Feels Like: 45 °F
Forecast: 39 / 60 °F
Wind: 2 mph from North

Location: Sudbury

Current Time: May 2, 2016 at 2:07:17 AM

Latest Report: May 2, 2016 at 1:00 AM


Visibility: 15 mi

Pressure: 30.09 "Hg

Humidity: 46%

Dew Point: 25 °F

Location of Greater SudburyLocation

Historic Weather in Greater Sudbury — Graph

°F

Greater Sudbury Temperature Yesterday

Maximum temperature yesterday: 55 °F (at 3:00 PM)
Minimum temperature yesterday: 39 °F (at 5:00 AM)
Average temperature yesterday: 48 °F

High & Low Weather Summary for the Past Weeks

 TemperatureHumidityPressure
High68 °F (Apr 17, 6:00 PM)100% (Apr 18, 11:00 PM)30.50 "Hg (Apr 18, 11:00 PM)
Low23 °F (Apr 27, 5:00 AM)17% (Apr 23, 5:00 PM)29.83 "Hg (Apr 21, 7:00 PM)
Average41 °F52%30.17 "Hg
* Reported Midnight between Apr 16 and Apr 17 — Midnight between May 1 and May 2, Greater Sudbury, Weather by CustomWeather, © 2016

Note: Actual official high and low records may vary slightly from our data, if they occured in-between our weather recording intervals... More about our weather records

Advertising

Greater Sudbury Weather History for the Previous 24 Hours

Scroll right to see more
 ConditionsComfort  
Time TempWeatherWind HumidityBarometerVisibility
12:00 AM
Mon, May 2
46 °FOvercast.5 mph46%30.10 "Hg15 mi
11:00 PM
Sun, May 1
48 °FPassing clouds.3 mph43%30.10 "Hg15 mi
10:00 PM48 °FPassing clouds.6 mph40%30.11 "Hg15 mi
9:00 PM52 °FPartly sunny.5 mph35%30.10 "Hg20 mi
8:00 PM54 °FPartly sunny.8 mph30%30.09 "Hg20 mi
7:00 PM55 °FPartly sunny.12 mph28%30.10 "Hg20 mi
6:00 PM55 °FPartly sunny.13 mph26%30.11 "Hg20 mi
5:00 PM55 °FPartly sunny.14 mph28%30.11 "Hg20 mi
4:00 PM55 °FOvercast.17 mph28%30.11 "Hg20 mi
3:00 PM55 °FOvercast.15 mph28%30.12 "Hg20 mi
2:00 PM54 °FOvercast.15 mph30%30.14 "Hg20 mi
1:00 PM54 °FOvercast.15 mph33%30.15 "Hg20 mi
12:00 PM50 °FMore clouds than sun.16 mph37%30.16 "Hg20 mi
11:00 AM50 °FMostly cloudy.18 mph40%30.17 "Hg20 mi
10:00 AM46 °FMostly cloudy.16 mph43%30.18 "Hg20 mi
9:00 AM43 °FMostly cloudy.15 mph53%30.18 "Hg20 mi
8:00 AM41 °FMostly cloudy.16 mph61%30.17 "Hg20 mi
7:00 AM39 °FPartly cloudy.17 mph65%30.16 "Hg20 mi
6:00 AM39 °FChilly.17 mph65%30.15 "Hg20 mi
5:00 AM39 °FPassing clouds.16 mph65%30.14 "Hg15 mi
4:00 AM41 °FOvercast.14 mph66%30.16 "Hg15 mi
3:00 AM41 °FOvercast.13 mph66%30.17 "Hg15 mi
2:00 AM43 °FOvercast.13 mph61%30.19 "Hg15 mi
Weather by CustomWeather, © 2016

See weather overviewHow to use our weather pages